W1CLK Weather Reports


time (UTC)temp
F
wind
direction
speed
knots
gust
knots
rain 1hr
in
rain 24hr
in
rain mn
in
humidity
%
barometer
mb
20260510130845 62 244 1.7 3.5 0.00 0.00 0.00 90 1014.0
20260510130344 62 279 0.0 1.7 0.00 0.00 0.00 90 1013.0
20260510125844 61 262 1.7 3.5 0.00 0.00 0.00 90 1013.0
20260510125344 60 111 0.0 1.7 0.00 0.00 0.00 92 1013.0
20260510124844 59 97 0.9 2.6 0.00 0.00 0.00 95 1013.0
20260510124344 59 118 0.0 0.9 0.00 0.00 0.00 97 1013.0
20260510123844 58 296 1.7 1.7 0.00 0.00 0.00 100 1013.0
20260510123346 57 7 0.0 0.9 0.00 0.00 0.00 99 1013.0
20260510122845 56 0 0.0 0.0 0.00 0.00 0.00 99 1013.0
20260510122344 55 86 0.0 1.7 0.00 0.00 0.00 99 1013.0
20260510121844 55 251 0.9 2.6 0.00 0.00 0.00 99 1013.0
20260510121344 55 140 0.9 2.6 0.00 0.00 0.00 99 1013.0
20260510120844 54 93 0.0 1.7 0.00 0.00 0.00 99 1013.0
20260510120344 53 137 0.9 0.9 0.00 0.00 0.00 99 1013.0
20260510115844 53 250 0.9 3.5 0.00 0.00 0.00 99 1013.0
20260510115346 52 248 1.7 3.5 0.00 0.00 0.00 99 1013.0
20260510114845 52 245 0.9 2.6 0.00 0.00 0.00 99 1013.0
20260510114345 52 244 0.0 0.9 0.00 0.00 0.00 99 1013.0
20260510113845 52 303 0.0 0.9 0.00 0.00 0.00 99 1013.0
20260510113345 51 74 0.0 0.9 0.00 0.00 0.00 99 1013.0
20260510112844 51 0 0.0 0.0 0.00 0.00 0.00 99 1012.0
20260510112344 50 0 0.0 0.0 0.00 0.00 0.00 99 1012.0
20260510111844 50 0 0.0 0.0 0.00 0.00 0.00 99 1013.0
20260510111344 50 90 0.0 0.9 0.00 0.00 0.00 99 1012.0
20260510110844 50 0 0.0 0.0 0.00 0.00 0.00 99 1012.0
20260510110344 49 0 0.0 0.0 0.00 0.00 0.00 99 1012.0
20260510105844 49 0 0.0 0.0 0.00 0.00 0.00 99 1012.0
20260510105344 49 82 1.7 1.7 0.00 0.00 0.00 99 1012.0
20260510104844 49 233 1.7 1.7 0.00 0.00 0.00 99 1013.0
20260510104344 49 0 0.0 0.0 0.00 0.00 0.00 99 1012.0
20260510103844 48 0 0.0 0.0 0.00 0.00 0.00 99 1012.0
20260510103344 48 118 0.0 0.0 0.00 0.00 0.00 99 1012.0
20260510102845 48 187 0.0 0.0 0.00 0.00 0.00 99 1012.0
20260510102344 48 286 0.0 1.7 0.00 0.00 0.00 99 1012.0
20260510101844 48 50 0.0 0.0 0.00 0.00 0.00 99 1012.0
20260510101344 49 0 0.0 0.0 0.00 0.00 0.00 99 1012.0
20260510100848 49 0 0.0 0.0 0.00 0.00 0.00 99 1012.0
20260510100344 49 0 0.0 0.0 0.00 0.00 0.00 99 1012.0
20260510095844 49 0 0.0 0.0 0.00 0.00 0.00 99 1012.0
20260510095344 49 0 0.0 0.0 0.00 0.00 0.00 99 1012.0
20260510094844 49 0 0.0 0.0 0.00 0.00 0.00 99 1012.0
20260510094344 49 86 0.0 0.0 0.00 0.00 0.00 99 1012.0
20260510093844 49 109 0.0 0.0 0.00 0.00 0.00 99 1012.0
20260510093346 49 0 0.0 0.0 0.00 0.00 0.00 99 1012.0
20260510092845 49 0 0.0 0.0 0.00 0.00 0.00 99 1012.0
20260510092344 49 0 0.0 0.0 0.00 0.00 0.00 99 1012.0
20260510091844 49 0 0.0 0.0 0.00 0.00 0.00 99 1012.0
20260510091344 49 16 0.0 0.0 0.00 0.00 0.00 99 1012.0
20260510090844 49 0 0.0 0.0 0.00 0.00 0.00 99 1012.0
20260510090346 49 0 0.0 0.0 0.00 0.00 0.00 99 1012.0
20260510085844 49 108 0.0 0.0 0.00 0.00 0.00 99 1011.0
20260510085344 49 108 0.9 1.7 0.00 0.00 0.00 99 1011.0
20260510084844 49 99 0.9 0.9 0.00 0.00 0.00 99 1011.0
20260510084344 49 61 1.7 2.6 0.00 0.00 0.00 99 1012.0
20260510083847 49 109 0.9 0.9 0.00 0.00 0.00 99 1012.0
20260510083345 49 136 0.9 1.7 0.00 0.00 0.00 99 1012.0
20260510082844 49 123 0.0 0.0 0.00 0.00 0.00 99 1012.0
20260510082344 49 220 1.7 3.5 0.00 0.00 0.00 99 1012.0
20260510081845 49 14 0.0 0.0 0.00 0.00 0.00 99 1012.0
20260510081344 50 293 3.5 3.5 0.00 0.00 0.00 99 1012.0
20260510080844 50 0 0.0 0.0 0.00 0.00 0.00 99 1012.0
20260510080344 49 133 0.9 2.6 0.00 0.00 0.00 99 1012.0
20260510075844 48 120 1.7 2.6 0.00 0.00 0.00 99 1011.0
20260510075344 47 262 1.7 5.2 0.00 0.00 0.00 99 1012.0
20260510074844 46 125 0.9 1.7 0.00 0.00 0.00 99 1012.0
20260510074344 46 0 0.0 0.0 0.00 0.00 0.00 99 1011.0
20260510073844 46 105 0.0 0.0 0.00 0.00 0.00 99 1011.0
20260510073345 46 0 0.0 0.0 0.00 0.00 0.00 99 1011.0
20260510072845 46 110 1.7 1.7 0.00 0.00 0.00 99 1011.0
20260510072343 47 0 0.0 0.0 0.00 0.00 0.00 99 1011.0
20260510071844 47 166 0.0 0.0 0.00 0.00 0.00 99 1011.0
20260510071344 47 89 0.0 0.0 0.00 0.00 0.00 99 1011.0
20260510070845 47 0 0.0 0.0 0.00 0.00 0.00 99 1011.0
20260510070344 47 264 1.7 2.6 0.00 0.00 0.00 99 1011.0
20260510065844 46 90 0.0 0.0 0.00 0.00 0.00 99 1011.0
20260510065345 45 145 0.9 1.7 0.00 0.00 0.00 99 1011.0
20260510064844 45 86 0.9 0.9 0.00 0.00 0.00 99 1011.0
20260510064344 45 50 0.0 0.0 0.00 0.00 0.00 99 1011.0
20260510063844 45 256 0.0 0.0 0.00 0.00 0.00 99 1011.0
20260510063344 46 229 0.0 0.9 0.00 0.00 0.00 99 1011.0
20260510062844 46 177 0.0 0.0 0.00 0.00 0.00 99 1011.0
20260510062344 45 0 0.0 0.0 0.00 0.00 0.00 99 1011.0
20260510061845 45 114 0.0 1.7 0.00 0.00 0.00 99 1011.0
20260510061346 45 79 0.0 0.0 0.00 0.00 0.00 99 1011.0
20260510060845 45 0 0.0 0.0 0.00 0.00 0.00 99 1011.0
20260510060345 45 0 0.0 0.0 0.00 0.00 0.00 99 1011.0
20260510055844 45 136 0.0 0.9 0.00 0.00 0.00 99 1011.0
20260510055344 45 202 0.0 0.0 0.00 0.00 0.00 99 1011.0
20260510054844 45 224 0.0 0.9 0.00 0.00 0.00 99 1011.0
20260510054344 45 143 0.0 0.9 0.00 0.00 0.00 99 1011.0
20260510053844 45 81 0.0 0.9 0.00 0.00 0.00 99 1011.0
20260510053344 45 0 0.0 0.0 0.00 0.00 0.00 99 1011.0
20260510052845 45 88 0.9 0.9 0.00 0.00 0.00 99 1011.0
20260510052344 45 0 0.0 0.0 0.00 0.00 0.00 99 1011.0
20260510051844 45 0 0.0 0.0 0.00 0.00 0.00 99 1011.0
20260510051344 45 121 0.0 0.9 0.00 0.00 0.00 99 1011.0
20260510050844 46 169 0.0 0.9 0.00 0.00 0.00 99 1011.0
20260510050344 46 150 0.0 0.9 0.00 0.00 0.00 99 1011.0
20260510045844 46 100 0.0 0.9 0.00 0.00 0.00 99 1011.0
20260510045344 46 78 0.0 0.9 0.00 0.00 0.00 99 1011.0
20260510044844 46 111 0.0 0.9 0.00 0.00 0.00 99 1011.0
20260510044345 45 126 0.0 0.0 0.00 0.00 0.00 99 1011.0
20260510043845 46 0 0.0 0.0 0.00 0.00 0.00 99 1011.0
20260510043344 46 122 0.0 0.9 0.00 0.00 0.00 99 1011.0
20260510042844 46 0 0.0 0.0 0.00 0.00 0.00 99 1011.0
20260510042344 46 260 0.0 1.7 0.00 0.00 0.00 99 1011.0
20260510041844 46 286 0.0 1.7 0.00 0.00 0.00 99 1011.0
20260510041344 46 116 0.0 0.9 0.00 0.00 0.00 99 1011.0
20260510040844 47 125 0.0 0.9 0.00 0.00 0.00 99 1011.0
20260510040344 47 0 0.0 0.0 0.00 0.00 0.00 99 1011.0
20260510035845 46 0 0.0 0.0 0.00 0.00 0.20 99 1011.0
20260510035344 47 0 0.0 0.0 0.00 0.00 0.20 99 1011.0
20260510034845 47 102 0.0 0.9 0.00 0.00 0.20 99 1011.0
20260510034344 47 0 0.0 0.0 0.00 0.00 0.20 99 1011.0
20260510033844 47 173 0.0 0.9 0.00 0.00 0.20 99 1011.0
20260510033345 47 130 0.0 0.9 0.00 0.00 0.20 99 1011.0
20260510032845 47 122 0.0 0.9 0.00 0.00 0.20 99 1011.0
20260510032344 48 68 0.0 0.9 0.00 0.00 0.20 99 1011.0
20260510031844 48 0 0.0 0.0 0.00 0.00 0.20 99 1011.0
20260510031344 48 315 0.0 0.9 0.00 0.00 0.20 99 1011.0
20260510030845 48 0 0.0 0.0 0.00 0.00 0.20 99 1011.0
20260510030344 48 0 0.0 0.0 0.00 0.00 0.20 99 1011.0
20260510025844 48 81 0.0 0.0 0.00 0.00 0.20 99 1011.0
20260510025344 48 72 0.0 0.9 0.00 0.00 0.20 99 1011.0
20260510024844 48 115 0.0 0.9 0.00 0.00 0.20 99 1011.0
20260510024344 49 0 0.0 0.0 0.00 0.00 0.20 99 1011.0
20260510023844 49 20 0.0 0.0 0.00 0.00 0.20 99 1011.0
20260510023344 49 0 0.0 0.0 0.00 0.00 0.20 99 1011.0
20260510022844 49 66 0.0 0.9 0.00 0.00 0.20 99 1011.0
20260510022346 49 229 0.0 0.9 0.00 0.00 0.20 99 1011.0
20260510021844 49 96 0.0 0.9 0.00 0.00 0.20 99 1011.0
20260510021344 49 97 0.0 1.7 0.00 0.00 0.20 99 1011.0
20260510020844 49 0 0.0 0.0 0.00 0.00 0.20 99 1011.0
20260510020344 49 85 0.0 0.9 0.00 0.00 0.20 100 1011.0
20260510015844 50 0 0.0 0.0 0.00 0.00 0.20 100 1011.0
20260510015344 50 77 0.0 0.0 0.00 0.00 0.20 99 1011.0
20260510014845 51 96 0.9 1.7 0.00 0.00 0.20 100 1011.0
20260510014345 50 0 0.0 0.0 0.00 0.00 0.20 99 1011.0
20260510013844 50 73 0.0 0.0 0.00 0.00 0.20 100 1011.0
20260510013344 51 99 0.0 0.9 0.00 0.00 0.20 100 1011.0
20260510012845 51 77 0.0 0.0 0.00 0.00 0.20 99 1011.0
20260510012345 51 102 0.0 0.9 0.00 0.00 0.20 99 1011.0
20260510011844 51 99 0.0 0.9 0.00 0.00 0.20 100 1011.0
20260510011345 51 126 0.0 0.9 0.00 0.00 0.20 99 1011.0
20260510010844 52 78 0.0 0.9 0.00 0.00 0.20 99 1010.0
20260510010344 52 75 0.0 0.9 0.00 0.00 0.20 99 1010.0
20260510005844 52 0 0.0 0.0 0.00 0.00 0.20 99 1010.0
20260510005346 53 0 0.0 0.0 0.00 0.00 0.20 98 1010.0
20260510004845 53 0 0.0 0.0 0.00 0.00 0.20 98 1010.0
20260510004344 54 148 0.0 0.9 0.00 0.00 0.20 99 1010.0
20260510003844 54 63 0.0 0.9 0.00 0.00 0.20 99 1010.0
20260510003344 54 0 0.0 0.0 0.00 0.00 0.20 98 1010.0
20260510002844 55 61 1.7 2.6 0.00 0.00 0.20 98 1010.0
20260510002344 55 88 0.0 0.9 0.00 0.00 0.20 98 1010.0
20260510001844 55 0 0.0 0.0 0.00 0.00 0.20 97 1010.0
20260510001344 55 0 0.0 0.0 0.00 0.00 0.20 97 1010.0
20260510000847 56 69 0.9 1.7 0.00 0.00 0.20 97 1010.0
20260510000345 56 101 1.7 2.6 0.00 0.00 0.20 96 1010.0
20260509235844 56 100 0.9 2.6 0.00 0.00 0.20 96 1010.0
20260509235344 56 112 2.6 3.5 0.00 0.00 0.20 96 1010.0
20260509234844 57 106 1.7 4.3 0.00 0.00 0.20 96 1010.0
20260509234345 57 118 1.7 3.5 0.00 0.00 0.20 96 1010.0
20260509233844 57 107 0.9 2.6 0.00 0.00 0.20 95 1010.0
20260509233344 57 61 0.9 1.7 0.00 0.00 0.20 94 1010.0
20260509232844 58 88 0.9 1.7 0.00 0.00 0.20 94 1010.0
20260509232344 58 90 0.9 2.6 0.00 0.00 0.20 93 1010.0
20260509231844 58 126 1.7 3.5 0.00 0.00 0.20 92 1010.0
20260509231344 58 127 0.9 1.7 0.00 0.00 0.20 91 1010.0
20260509230844 58 133 2.6 3.5 0.00 0.00 0.20 91 1010.0
20260509230344 58 120 0.9 2.6 0.00 0.00 0.20 92 1010.0
20260509225844 58 115 0.9 1.7 0.00 0.00 0.20 91 1010.0
20260509225345 59 112 0.9 2.6 0.00 0.00 0.20 91 1010.0
20260509224844 59 110 0.9 1.7 0.00 0.00 0.20 90 1010.0
20260509224347 60 138 1.7 2.6 0.00 0.00 0.20 87 1010.0
20260509223845 60 115 1.7 2.6 0.00 0.00 0.20 85 1010.0
20260509223344 60 76 0.0 0.9 0.00 0.00 0.20 83 1010.0
20260509222844 60 115 1.7 2.6 0.00 0.00 0.20 83 1010.0
20260509222344 60 139 1.7 2.6 0.00 0.00 0.20 83 1010.0
20260509221844 60 125 0.9 3.5 0.00 0.00 0.20 82 1010.0
20260509221345 60 0 0.0 0.0 0.00 0.00 0.20 85 1010.0
20260509220844 60 0 0.0 0.0 0.00 0.00 0.20 87 1010.0
20260509220344 59 113 0.0 0.9 0.00 0.00 0.20 87 1010.0
20260509215844 59 102 0.0 1.7 0.00 0.00 0.20 85 1010.0
20260509215344 59 0 0.0 0.0 0.00 0.00 0.20 85 1010.0
20260509214844 59 25 0.0 0.0 0.00 0.00 0.20 86 1010.0
20260509214344 60 108 0.9 2.6 0.00 0.00 0.20 87 1010.0
20260509213844 60 112 1.7 3.5 0.00 0.00 0.20 84 1010.0
20260509213345 60 115 1.7 2.6 0.00 0.00 0.20 83 1010.0
20260509212844 59 70 0.0 1.7 0.00 0.00 0.20 88 1010.0
20260509212344 59 129 0.0 0.9 0.00 0.00 0.20 88 1010.0
20260509211844 59 0 0.0 0.0 0.00 0.00 0.20 90 1010.0
20260509211344 59 0 0.0 0.0 0.00 0.00 0.20 90 1010.0
20260509210844 59 0 0.0 0.0 0.00 0.00 0.20 89 1010.0
20260509210344 59 0 0.0 0.0 0.00 0.00 0.20 86 1010.0
20260509205844 59 0 0.0 0.0 0.00 0.00 0.20 88 1010.0
20260509205345 60 124 0.0 0.0 0.00 0.00 0.20 88 1010.0
20260509204846 60 0 0.0 0.0 0.00 0.00 0.20 87 1010.0
20260509204344 60 0 0.0 0.0 0.00 0.00 0.20 87 1010.0
20260509203844 60 92 0.0 1.7 0.00 0.00 0.20 86 1010.0
20260509203344 60 48 0.0 2.6 0.00 0.00 0.20 88 1010.0
20260509202848 60 78 0.9 3.5 0.00 0.00 0.20 89 1010.0
20260509202344 59 106 1.7 3.5 0.00 0.00 0.20 88 1010.0
20260509201845 59 174 1.7 2.6 0.00 0.00 0.20 89 1010.0
20260509201343 58 215 0.0 0.9 0.00 0.00 0.20 91 1010.0
20260509200844 58 45 0.0 1.7 0.00 0.00 0.19 93 1010.0
20260509200346 58 75 1.7 3.5 0.00 0.00 0.19 93 1010.0
20260509195844 57 75 0.0 1.7 0.00 0.00 0.19 94 1010.0
20260509195345 57 104 0.9 2.6 0.00 0.00 0.19 93 1010.0
20260509194845 57 86 0.9 1.7 0.00 0.00 0.19 94 1010.0
20260509194344 57 76 0.0 1.7 0.00 0.00 0.19 94 1010.0
20260509193844 56 71 0.0 1.7 0.00 0.00 0.18 95 1010.0
20260509193344 56 0 0.0 0.0 0.00 0.00 0.18 94 1011.0
20260509192844 56 75 1.7 3.5 0.00 0.00 0.18 93 1011.0
20260509192344 56 158 0.0 0.9 0.00 0.00 0.20 94 1011.0
20260509191844 56 89 0.0 2.6 0.00 0.00 0.20 94 1011.0
20260509191344 56 108 0.0 1.7 0.00 0.00 0.20 95 1011.0
20260509190844 56 202 0.9 1.7 0.07 0.00 0.19 95 1011.0
20260509190344 56 112 0.0 0.0 0.14 0.00 0.18 95 1011.0
20260509185844 56 0 0.0 0.0 0.01 0.00 0.17 95 1011.0
20260509185344 56 0 0.0 0.0 0.01 0.00 0.16 95 1011.0
20260509184844 55 80 0.0 1.7 0.01 0.00 0.16 94 1011.0
20260509184344 55 82 0.0 1.7 0.01 0.00 0.16 94 1012.0
20260509183844 55 0 0.0 0.0 0.00 0.00 0.16 95 1012.0
20260509183344 55 316 0.0 0.0 0.01 0.00 0.16 94 1012.0
20260509182846 55 0 0.0 0.0 0.00 0.00 0.16 95 1012.0
20260509182344 55 217 0.0 0.0 0.01 0.00 0.16 94 1012.0
20260509181844 55 0 0.0 0.0 0.00 0.00 0.16 94 1012.0
20260509181344 55 179 0.0 1.7 0.00 0.00 0.16 94 1012.0
20260509180844 55 14 0.0 0.0 0.00 0.00 0.16 93 1012.0
20260509180344 55 274 0.9 2.6 0.00 0.00 0.16 92 1012.0
20260509175845 56 206 0.9 1.7 0.00 0.00 0.16 92 1012.0
20260509175344 56 0 0.0 0.0 0.00 0.00 0.16 94 1012.0
20260509174846 56 57 0.0 0.9 0.00 0.00 0.16 94 1012.0
20260509174344 56 0 0.0 0.0 0.00 0.00 0.16 94 1012.0
20260509173844 56 215 1.7 2.6 0.00 0.00 0.16 94 1012.0
20260509173348 55 264 1.7 3.5 0.00 0.00 0.16 93 1012.0
20260509172845 55 0 0.0 0.0 0.01 0.00 0.16 92 1012.0
20260509172344 56 54 0.0 0.9 0.01 0.00 0.16 93 1012.0
20260509171844 56 203 0.9 2.6 0.04 0.00 0.15 93 1012.0
20260509171345 56 250 1.7 2.6 0.00 0.00 0.15 91 1012.0
20260509170844 56 154 0.0 0.9 0.02 0.00 0.15 92 1012.0
20260509170345 56 144 0.0 0.9 0.01 0.00 0.15 92 1012.0
20260509165844 57 22 0.0 1.7 0.00 0.00 0.15 92 1012.0
20260509165344 57 128 0.0 0.9 0.00 0.00 0.15 92 1012.0
20260509164845 56 0 0.0 0.0 0.00 0.00 0.15 91 1012.0
20260509164344 57 154 0.9 1.7 0.00 0.00 0.15 90 1012.0
20260509163844 57 138 1.7 2.6 0.00 0.00 0.15 88 1012.0
20260509163344 57 121 1.7 3.5 0.00 0.00 0.15 87 1012.0
20260509162844 57 96 0.9 1.7 0.00 0.00 0.15 88 1011.0
20260509162344 56 105 0.9 1.7 0.00 0.00 0.17 89 1011.0
20260509161844 56 3 0.0 0.9 0.00 0.00 0.16 92 1012.0
20260509161344 56 281 2.6 4.3 0.05 0.00 0.16 90 1012.0
20260509160844 56 263 0.9 2.6 0.09 0.00 0.15 90 1012.0
20260509160345 56 100 0.9 1.7 0.12 0.00 0.14 90 1012.0
20260509155845 55 111 1.7 3.5 0.19 0.00 0.13 92 1012.0
20260509155344 55 264 2.6 3.5 0.14 0.00 0.12 93 1012.0
20260509154844 56 266 0.0 1.7 0.07 0.00 0.10 93 1012.0
20260509154344 56 219 1.7 3.5 0.10 0.00 0.10 92 1012.0
20260509153845 56 267 2.6 6.1 0.20 0.00 0.08 92 1013.0
20260509153344 56 260 2.6 4.3 0.18 0.00 0.07 92 1013.0
20260509152845 56 275 4.3 7.0 0.06 0.00 0.06 90 1013.0
20260509152344 57 264 5.2 7.8 0.04 0.00 0.06 89 1013.0
20260509151844 57 268 0.9 3.5 0.06 0.00 0.06 90 1013.0
20260509151345 57 289 5.2 7.8 0.04 0.00 0.05 89 1013.0
20260509150845 57 270 3.5 7.0 0.03 0.00 0.05 90 1013.0
20260509150344 58 226 0.9 1.7 0.06 0.00 0.04 89 1013.0
20260509145400 58 132 0.9 0.9 0.07 0.00 0.04 88 1012.0
20260509144844 58 162 0.9 1.7 0.05 0.00 0.03 87 1012.0
20260509144345 58 201 1.7 2.6 0.03 0.00 0.02 86 1012.0
20260509143844 58 244 2.6 5.2 0.02 0.00 0.02 85 1012.0
20260509143344 58 272 2.6 3.5 0.04 0.00 0.01 84 1012.0
20260509142844 58 246 1.7 6.1 0.04 0.00 0.01 83 1012.0
20260509142345 58 121 0.9 2.6 0.07 0.00 0.01 84 1012.0
20260509141845 58 124 0.9 2.6 0.01 0.00 0.00 85 1012.0
20260509141344 58 200 1.7 3.5 0.01 0.00 0.00 85 1012.0
20260509140844 58 228 1.7 2.6 0.00 0.00 0.00 85 1012.0
20260509140344 58 298 1.7 2.6 0.00 0.00 0.00 84 1012.0
20260509135844 58 148 0.9 1.7 0.00 0.00 0.00 84 1012.0
20260509135344 58 222 0.0 0.0 0.00 0.00 0.00 84 1012.0
20260509134844 57 169 0.9 0.9 0.00 0.00 0.00 85 1012.0
20260509134345 57 136 0.9 1.7 0.00 0.00 0.00 84 1012.0
20260509133844 57 136 2.6 3.5 0.00 0.00 0.00 85 1012.0
20260509133344 57 233 1.7 2.6 0.00 0.00 0.00 85 1012.0
20260509132846 57 200 1.7 5.2 0.00 0.00 0.00 84 1012.0
20260509132344 56 288 0.9 2.6 0.00 0.00 0.00 85 1012.0
20260509131844 56 261 2.6 3.5 0.00 0.00 0.00 85 1012.0
20260509131344 56 290 0.9 1.7 0.00 0.00 0.00 86 1012.0